User: anonymous   Login
Location: Unspecified
(0.0000°N, 0.0000°E)
Time: 02:53:58
(UTC+00:00)
Language:

Kosmos-1168 - Orbit

View from above orbital plane
View from above orbital plane
View from above satellite
View from above satellite

Ground track
Ground track

The orbit data is extracted from the following two-line orbital elements,

1 11735U 80022A   18171.42185115 +.00000033 +00000-0 +19204-4 0  9990
2 11735 082.9475 275.6497 0034631 222.6964 206.1171 13.74965078919289
Epoch (UTC): 20 June 2018 10:07:27
Eccentricity: 0.0034631
inclination: 82.9475°
perigee height: 956 km
apogee height: 1007 km
right ascension of ascending node: 275.6497°
argument of perigee: 222.6964°
revolutions per day: 13.74965078
mean anomaly at epoch: 206.1171°
orbit number at epoch: 91928

The dashed part of the orbit path shows where the satellite is in the earth's shadow,  

DLR